When you browse on this site, cookies collect data to enhance your experience and personalize the content and advertising you see.
Visit our Privacy Policy to learn more. By continuing to use the site, you agree to this use of cookies and data.
  • In Lithuania
  • List of Countries
  • For 7 days
  • Water Temperature
  • Weather Map
  • Weather Widgets
  • user-avatar
    Login

    Hourly Weather Dipayal

    Today, 17 January, Friday

    Time Temperature Precipitation Wind Pressure Humidity
    00:00 +13°C° 0.5 mm 2 mps 702 mmHg 94%
    01:00 +13°C° 0.5 mm 1 mps 702 mmHg 94%
    02:00 +13°C° 0.5 mm 1 mps 702 mmHg 93%
    03:00 +13°C° 0.3 mm 1 mps 702 mmHg 93%
    04:00 +13°C° 0.3 mm 1 mps 701 mmHg 93%
    05:00 +12°C° 0 mm 0 mps 701 mmHg 93%
    06:00 +13°C° 1 mm 1 mps 701 mmHg 94%
    07:00 +13°C° 1 mm 1 mps 701 mmHg 95%
    08:00 +13°C° 1 mm 1 mps 702 mmHg 96%
    09:00 +14°C° 0.5 mm 1 mps 702 mmHg 92%
    10:00 +15°C° 0.5 mm 1 mps 702 mmHg 89%
    11:00 +16°C° 0 mm 1 mps 702 mmHg 82%
    12:00 +16°C° 1.8 mm 1 mps 702 mmHg 85%
    13:00 +15°C° 1.8 mm 1 mps 701 mmHg 88%
    14:00 +14°C° 1.8 mm 1 mps 700 mmHg 92%
    15:00 +13°C° 1.5 mm 1 mps 700 mmHg 93%
    16:00 +13°C° 1.5 mm 1 mps 700 mmHg 94%
    17:00 +12°C° 1.5 mm 1 mps 700 mmHg 95%
    18:00 +12°C° 0.9 mm 1 mps 701 mmHg 95%
    19:00 +12°C° 0.9 mm 1 mps 702 mmHg 95%
    20:00 +12°C° 0.9 mm 1 mps 703 mmHg 95%
    21:00 +12°C° 0.8 mm 1 mps 703 mmHg 95%
    22:00 +12°C° 0.8 mm 1 mps 703 mmHg 95%
    23:00 +12°C° 0.8 mm 1 mps 704 mmHg 96%

    Tomorrow, 18 January, Saturday

    Time Temperature Precipitation Wind Pressure Humidity
    00:00 +12°C° 0.5 mm 1 mps 704 mmHg 95%
    01:00 +12°C° 0.5 mm 1 mps 704 mmHg 95%
    02:00 +12°C° 0.5 mm 1 mps 704 mmHg 94%
    03:00 +12°C° 0.5 mm 1 mps 703 mmHg 94%
    04:00 +12°C° 0.5 mm 1 mps 703 mmHg 94%
    05:00 +12°C° 0.5 mm 1 mps 703 mmHg 94%
    06:00 +12°C° 0.4 mm 1 mps 704 mmHg 92%
    07:00 +13°C° 0.4 mm 1 mps 704 mmHg 90%
    08:00 +13°C° 0.4 mm 1 mps 705 mmHg 88%
    09:00 +15°C° 0.5 mm 1 mps 705 mmHg 80%
    10:00 +16°C° 0.5 mm 1 mps 705 mmHg 73%
    11:00 +19°C° 0.5 mm 1 mps 704 mmHg 65%
    12:00 +19°C° 0.5 mm 1 mps 704 mmHg 62%
    13:00 +18°C° 0.5 mm 2 mps 703 mmHg 59%
    14:00 +18°C° 0.5 mm 2 mps 703 mmHg 56%
    15:00 +16°C° 0.3 mm 1 mps 703 mmHg 64%
    16:00 +14°C° 0.3 mm 1 mps 702 mmHg 71%
    17:00 +13°C° 0.3 mm 1 mps 702 mmHg 78%
    18:00 +12°C° 0 mm 1 mps 703 mmHg 79%
    19:00 +11°C° 0 mm 1 mps 704 mmHg 80%
    20:00 +11°C° 0 mm 1 mps 705 mmHg 80%
    21:00 +10°C° 0 mm 1 mps 705 mmHg 80%
    22:00 +10°C° 0 mm 1 mps 705 mmHg 80%
    23:00 +10°C° 0 mm 1 mps 705 mmHg 80%

    Day after tomorrow, 19 January, Sunday

    Time Temperature Precipitation Wind Pressure Humidity
    00:00 +9°C° 0.1 mm 1 mps 705 mmHg 80%
    01:00 +9°C° 0.1 mm 1 mps 705 mmHg 80%
    02:00 +9°C° 0.1 mm 1 mps 706 mmHg 80%
    03:00 +9°C° 0.1 mm 1 mps 706 mmHg 79%
    04:00 +8°C° 0.1 mm 1 mps 706 mmHg 79%
    05:00 +8°C° 0.1 mm 1 mps 706 mmHg 78%
    06:00 +9°C° 0 mm 1 mps 706 mmHg 75%
    07:00 +10°C° 0 mm 1 mps 707 mmHg 72%
    08:00 +11°C° 0 mm 1 mps 707 mmHg 69%
    09:00 +14°C° 0 mm 1 mps 707 mmHg 62%
    10:00 +16°C° 0 mm 1 mps 706 mmHg 55%
    11:00 +18°C° 0 mm 0 mps 706 mmHg 47%
    12:00 +20°C° 0 mm 1 mps 706 mmHg 45%
    13:00 +20°C° 0 mm 1 mps 705 mmHg 42%
    14:00 +20°C° 0 mm 1 mps 704 mmHg 40%
    15:00 +18°C° 0.1 mm 1 mps 704 mmHg 51%
    16:00 +15°C° 0.1 mm 1 mps 704 mmHg 62%
    17:00 +13°C° 0.1 mm 1 mps 704 mmHg 74%
    18:00 +12°C° 0 mm 1 mps 705 mmHg 75%
    19:00 +11°C° 0 mm 1 mps 706 mmHg 76%
    20:00 +10°C° 0 mm 1 mps 707 mmHg 78%
    21:00 +9°C° 0 mm 2 mps 707 mmHg 75%
    22:00 +8°C° 0 mm 2 mps 707 mmHg 72%
    23:00 +8°C° 0 mm 2 mps 707 mmHg 69%

    20 January, Monday

    Time Temperature Precipitation Wind Pressure Humidity
    00:00 +8°C° 0 mm 2 mps 707 mmHg 67%
    01:00 +7°C° 0 mm 2 mps 707 mmHg 64%
    02:00 +7°C° 0 mm 2 mps 707 mmHg 62%
    03:00 +7°C° 0 mm 2 mps 706 mmHg 60%
    04:00 +6°C° 0 mm 2 mps 706 mmHg 58%
    05:00 +6°C° 0 mm 2 mps 706 mmHg 57%
    06:00 +7°C° 0 mm 2 mps 706 mmHg 54%
    07:00 +9°C° 0 mm 2 mps 706 mmHg 52%
    08:00 +11°C° 0 mm 1 mps 706 mmHg 50%
    09:00 +14°C° 0 mm 1 mps 706 mmHg 43%
    10:00 +18°C° 0 mm 1 mps 705 mmHg 37%
    11:00 +19°C° 0 mm 0 mps 705 mmHg 30%
    12:00 +21°C° 0 mm 1 mps 704 mmHg 30%
    13:00 +21°C° 0 mm 1 mps 704 mmHg 30%
    14:00 +21°C° 0 mm 1 mps 703 mmHg 30%
    15:00 +18°C° 0 mm 1 mps 703 mmHg 40%
    16:00 +15°C° 0 mm 1 mps 703 mmHg 50%
    17:00 +13°C° 0 mm 1 mps 703 mmHg 60%
    18:00 +13°C° 0 mm 1 mps 704 mmHg 62%
    19:00 +12°C° 0 mm 1 mps 705 mmHg 64%
    20:00 +11°C° 0 mm 1 mps 706 mmHg 65%
    21:00 +11°C° 0 mm 1 mps 706 mmHg 64%
    22:00 +11°C° 0 mm 1 mps 706 mmHg 62%
    23:00 +11°C° 0 mm 1 mps 706 mmHg 60%

    21 January, Tuesday

    Time Temperature Precipitation Wind Pressure Humidity
    00:00 +11°C° 0 mm 1 mps 705 mmHg 59%
    01:00 +11°C° 0 mm 1 mps 705 mmHg 58%
    02:00 +11°C° 0 mm 1 mps 705 mmHg 58%
    03:00 +11°C° 0 mm 1 mps 705 mmHg 60%
    04:00 +11°C° 0 mm 1 mps 705 mmHg 62%
    05:00 +10°C° 0 mm 1 mps 705 mmHg 64%
    06:00 +11°C° 0 mm 1 mps 705 mmHg 63%
    07:00 +12°C° 0 mm 1 mps 706 mmHg 62%
    08:00 +13°C° 0 mm 1 mps 706 mmHg 60%
    09:00 +15°C° 0 mm 1 mps 706 mmHg 52%
    10:00 +19°C° 0 mm 1 mps 706 mmHg 45%
    11:00 +21°C° 0 mm 1 mps 706 mmHg 37%
    12:00 +21°C° 0 mm 1 mps 705 mmHg 36%
    13:00 +21°C° 0 mm 1 mps 704 mmHg 35%
    14:00 +20°C° 0 mm 2 mps 703 mmHg 34%
    15:00 +19°C° 0 mm 1 mps 703 mmHg 44%
    16:00 +16°C° 0 mm 1 mps 703 mmHg 53%
    17:00 +14°C° 0 mm 1 mps 703 mmHg 63%
    18:00 +13°C° 0 mm 1 mps 704 mmHg 65%
    19:00 +12°C° 0 mm 1 mps 705 mmHg 66%
    20:00 +11°C° 0 mm 1 mps 706 mmHg 67%
    21:00 +11°C° 0 mm 1 mps 706 mmHg 66%
    22:00 +11°C° 0 mm 1 mps 706 mmHg 65%
    23:00 +10°C° 0 mm 1 mps 706 mmHg 65%

    22 January, Wednesday

    Time Temperature Precipitation Wind Pressure Humidity
    00:00 +10°C° 0 mm 1 mps 706 mmHg 63%
    01:00 +10°C° 0 mm 1 mps 706 mmHg 62%
    02:00 +10°C° 0 mm 1 mps 706 mmHg 61%
    03:00 +10°C° 0 mm 1 mps 706 mmHg 62%
    04:00 +10°C° 0 mm 1 mps 705 mmHg 62%
    05:00 +9°C° 0 mm 1 mps 705 mmHg 62%
    06:00 +10°C° 0 mm 1 mps 706 mmHg 60%
    07:00 +11°C° 0 mm 1 mps 706 mmHg 58%
    08:00 +12°C° 0 mm 1 mps 707 mmHg 57%
    09:00 +15°C° 0 mm 1 mps 707 mmHg 51%
    10:00 +18°C° 0 mm 1 mps 706 mmHg 46%
    11:00 +21°C° 0 mm 1 mps 706 mmHg 40%
    12:00 +21°C° 0 mm 1 mps 705 mmHg 39%
    13:00 +21°C° 0 mm 1 mps 705 mmHg 38%
    14:00 +21°C° 0 mm 1 mps 704 mmHg 37%
    15:00 +19°C° 0 mm 1 mps 704 mmHg 47%
    16:00 +16°C° 0 mm 1 mps 704 mmHg 56%
    17:00 +14°C° 0 mm 1 mps 704 mmHg 65%
    18:00 +13°C° 0 mm 1 mps 705 mmHg 67%
    19:00 +12°C° 0 mm 1 mps 706 mmHg 69%
    20:00 +11°C° 0 mm 1 mps 707 mmHg 71%
    21:00 +11°C° 0 mm 1 mps 707 mmHg 69%
    22:00 +9°C° 0 mm 2 mps 707 mmHg 67%
    23:00 +9°C° 0 mm 2 mps 707 mmHg 66%
    Show more